owner,sensor,date,latitude,longitude,vertical_datum,sea_water_practical_salinity,qcFlag 
LUMCON,ioos:station:LUMCON:102:1,2017-02-01T00:00:00Z,29.1870,-90.6093,2.24,21.58,1111122 
LUMCON,ioos:station:LUMCON:102:1,2017-02-01T00:15:00Z,29.1870,-90.6093,2.24,21.57,1111122 
LUMCON,ioos:station:LUMCON:102:1,2017-02-01T00:30:00Z,29.1870,-90.6093,2.24,21.65,1111122 
LUMCON,ioos:station:LUMCON:102:1,2017-02-01T00:45:00Z,29.1870,-90.6093,2.23,21.66,1111122 
LUMCON,ioos:station:LUMCON:102:1,2017-02-01T01:00:00Z,29.1870,-90.6093,2.24,21.77,1111122 
LUMCON,ioos:station:LUMCON:102:1,2017-02-01T01:15:00Z,29.1870,-90.6093,2.24,21.9,1111122 
LUMCON,ioos:station:LUMCON:102:1,2017-02-01T01:30:00Z,29.1870,-90.6093,2.24,21.97,1111122 
LUMCON,ioos:station:LUMCON:102:1,2017-02-01T01:45:00Z,29.1870,-90.6093,2.25,21.96,1111122 
LUMCON,ioos:station:LUMCON:102:1,2017-02-01T02:00:00Z,29.1870,-90.6093,2.25,22.02,1111122 
LUMCON,ioos:station:LUMCON:102:1,2017-02-01T02:15:00Z,29.1870,-90.6093,2.26,22.03,1111122 
LUMCON,ioos:station:LUMCON:102:1,2017-02-01T02:30:00Z,29.1870,-90.6093,2.26,22.05,1111122 
LUMCON,ioos:station:LUMCON:102:1,2017-02-01T02:45:00Z,29.1870,-90.6093,2.26,22.08,1111122 
LUMCON,ioos:station:LUMCON:102:1,2017-02-01T03:00:00Z,29.1870,-90.6093,2.25,22.08,1111122 
LUMCON,ioos:station:LUMCON:102:1,2017-02-01T03:15:00Z,29.1870,-90.6093,2.26,22.01,1111122 
LUMCON,ioos:station:LUMCON:102:1,2017-02-01T03:30:00Z,29.1870,-90.6093,2.26,21.92,1111122 
LUMCON,ioos:station:LUMCON:102:1,2017-02-01T03:45:00Z,29.1870,-90.6093,2.26,21.81,1111122 
LUMCON,ioos:station:LUMCON:102:1,2017-02-01T04:00:00Z,29.1870,-90.6093,2.26,21.76,1111122 
LUMCON,ioos:station:LUMCON:102:1,2017-02-01T04:15:00Z,29.1870,-90.6093,2.27,21.82,1111122 
LUMCON,ioos:station:LUMCON:102:1,2017-02-01T04:30:00Z,29.1870,-90.6093,2.27,21.7,1111122 
LUMCON,ioos:station:LUMCON:102:1,2017-02-01T04:45:00Z,29.1870,-90.6093,2.27,21.56,1111122 
LUMCON,ioos:station:LUMCON:102:1,2017-02-01T05:00:00Z,29.1870,-90.6093,2.28,21.53,1111122 
LUMCON,ioos:station:LUMCON:102:1,2017-02-01T05:15:00Z,29.1870,-90.6093,2.27,21.69,1111122 
LUMCON,ioos:station:LUMCON:102:1,2017-02-01T05:30:00Z,29.1870,-90.6093,2.28,22.0,1111122 
LUMCON,ioos:station:LUMCON:102:1,2017-02-01T05:45:00Z,29.1870,-90.6093,2.28,22.03,1111122 
LUMCON,ioos:station:LUMCON:102:1,2017-02-01T06:00:00Z,29.1870,-90.6093,2.28,22.05,1111122 
LUMCON,ioos:station:LUMCON:102:1,2017-02-01T06:15:00Z,29.1870,-90.6093,2.28,22.04,1111122 
LUMCON,ioos:station:LUMCON:102:1,2017-02-01T06:30:00Z,29.1870,-90.6093,2.29,22.04,1111122 
LUMCON,ioos:station:LUMCON:102:1,2017-02-01T06:45:00Z,29.1870,-90.6093,2.28,22.03,1111122 
LUMCON,ioos:station:LUMCON:102:1,2017-02-01T07:00:00Z,29.1870,-90.6093,2.29,21.99,1111122 
LUMCON,ioos:station:LUMCON:102:1,2017-02-01T07:15:00Z,29.1870,-90.6093,2.29,21.98,1111122 
LUMCON,ioos:station:LUMCON:102:1,2017-02-01T07:30:00Z,29.1870,-90.6093,2.29,22.03,1111122 
LUMCON,ioos:station:LUMCON:102:1,2017-02-01T07:45:00Z,29.1870,-90.6093,2.28,22.02,1111122 
LUMCON,ioos:station:LUMCON:102:1,2017-02-01T08:00:00Z,29.1870,-90.6093,2.27,21.93,1111122 
LUMCON,ioos:station:LUMCON:102:1,2017-02-01T08:15:00Z,29.1870,-90.6093,2.27,21.97,1111122 
LUMCON,ioos:station:LUMCON:102:1,2017-02-01T08:30:00Z,29.1870,-90.6093,2.27,21.89,1111122 
LUMCON,ioos:station:LUMCON:102:1,2017-02-01T08:45:00Z,29.1870,-90.6093,2.27,21.86,1111122 
LUMCON,ioos:station:LUMCON:102:1,2017-02-01T09:00:00Z,29.1870,-90.6093,2.25,21.85,1111122 
LUMCON,ioos:station:LUMCON:102:1,2017-02-01T09:15:00Z,29.1870,-90.6093,2.24,21.76,1111122 
LUMCON,ioos:station:LUMCON:102:1,2017-02-01T09:30:00Z,29.1870,-90.6093,2.25,21.73,1111122 
LUMCON,ioos:station:LUMCON:102:1,2017-02-01T09:45:00Z,29.1870,-90.6093,2.23,21.54,1111122 
LUMCON,ioos:station:LUMCON:102:1,2017-02-01T10:00:00Z,29.1870,-90.6093,2.22,21.41,1111122 
LUMCON,ioos:station:LUMCON:102:1,2017-02-01T10:15:00Z,29.1870,-90.6093,2.21,21.58,1111122 
LUMCON,ioos:station:LUMCON:102:1,2017-02-01T10:30:00Z,29.1870,-90.6093,2.2,21.56,1111122 
LUMCON,ioos:station:LUMCON:102:1,2017-02-01T10:45:00Z,29.1870,-90.6093,2.2,21.56,1111122 
LUMCON,ioos:station:LUMCON:102:1,2017-02-01T11:00:00Z,29.1870,-90.6093,2.18,21.28,1111122 
LUMCON,ioos:station:LUMCON:102:1,2017-02-01T11:15:00Z,29.1870,-90.6093,2.18,21.47,1111122 
LUMCON,ioos:station:LUMCON:102:1,2017-02-01T11:30:00Z,29.1870,-90.6093,2.18,21.46,1111122 
LUMCON,ioos:station:LUMCON:102:1,2017-02-01T11:45:00Z,29.1870,-90.6093,2.16,21.49,1111122 
LUMCON,ioos:station:LUMCON:102:1,2017-02-01T12:00:00Z,29.1870,-90.6093,2.16,21.48,1111122 
LUMCON,ioos:station:LUMCON:102:1,2017-02-01T12:15:00Z,29.1870,-90.6093,2.15,21.46,1111122 
LUMCON,ioos:station:LUMCON:102:1,2017-02-01T12:30:00Z,29.1870,-90.6093,2.14,21.25,1111122 
LUMCON,ioos:station:LUMCON:102:1,2017-02-01T12:45:00Z,29.1870,-90.6093,2.13,21.13,1111122 
LUMCON,ioos:station:LUMCON:102:1,2017-02-01T13:00:00Z,29.1870,-90.6093,2.13,20.97,1111122 
LUMCON,ioos:station:LUMCON:102:1,2017-02-01T13:15:00Z,29.1870,-90.6093,2.12,20.79,1111122 
LUMCON,ioos:station:LUMCON:102:1,2017-02-01T13:30:00Z,29.1870,-90.6093,2.12,20.71,1111122 
LUMCON,ioos:station:LUMCON:102:1,2017-02-01T13:45:00Z,29.1870,-90.6093,2.13,20.47,1111122 
LUMCON,ioos:station:LUMCON:102:1,2017-02-01T14:00:00Z,29.1870,-90.6093,2.12,20.38,1111122 
LUMCON,ioos:station:LUMCON:102:1,2017-02-01T14:15:00Z,29.1870,-90.6093,2.13,20.16,1111122 
LUMCON,ioos:station:LUMCON:102:1,2017-02-01T14:30:00Z,29.1870,-90.6093,2.13,20.13,1111122 
LUMCON,ioos:station:LUMCON:102:1,2017-02-01T14:45:00Z,29.1870,-90.6093,2.12,20.25,1111122 
LUMCON,ioos:station:LUMCON:102:1,2017-02-01T15:00:00Z,29.1870,-90.6093,2.13,20.18,1111122 
LUMCON,ioos:station:LUMCON:102:1,2017-02-01T15:15:00Z,29.1870,-90.6093,2.13,20.44,1111122 
LUMCON,ioos:station:LUMCON:102:1,2017-02-01T15:30:00Z,29.1870,-90.6093,2.14,20.52,1111122 
LUMCON,ioos:station:LUMCON:102:1,2017-02-01T15:45:00Z,29.1870,-90.6093,2.14,20.52,1111122 
LUMCON,ioos:station:LUMCON:102:1,2017-02-01T16:00:00Z,29.1870,-90.6093,2.14,20.51,1111122 
LUMCON,ioos:station:LUMCON:102:1,2017-02-01T16:15:00Z,29.1870,-90.6093,2.14,20.57,1111122 
LUMCON,ioos:station:LUMCON:102:1,2017-02-01T16:30:00Z,29.1870,-90.6093,2.14,20.55,1111122 
LUMCON,ioos:station:LUMCON:102:1,2017-02-01T16:45:00Z,29.1870,-90.6093,2.15,20.62,1111122 
LUMCON,ioos:station:LUMCON:102:1,2017-02-01T17:00:00Z,29.1870,-90.6093,2.16,20.56,1111122 
LUMCON,ioos:station:LUMCON:102:1,2017-02-01T17:15:00Z,29.1870,-90.6093,2.17,20.61,1111122 
LUMCON,ioos:station:LUMCON:102:1,2017-02-01T17:30:00Z,29.1870,-90.6093,2.17,20.68,1111122 
LUMCON,ioos:station:LUMCON:102:1,2017-02-01T17:45:00Z,29.1870,-90.6093,2.18,20.58,1111122 
LUMCON,ioos:station:LUMCON:102:1,2017-02-01T18:00:00Z,29.1870,-90.6093,2.19,20.68,1111122 
LUMCON,ioos:station:LUMCON:102:1,2017-02-01T18:15:00Z,29.1870,-90.6093,2.19,20.74,1111122 
LUMCON,ioos:station:LUMCON:102:1,2017-02-01T18:30:00Z,29.1870,-90.6093,2.21,20.76,1111122 
LUMCON,ioos:station:LUMCON:102:1,2017-02-01T18:45:00Z,29.1870,-90.6093,2.22,20.85,1111122 
LUMCON,ioos:station:LUMCON:102:1,2017-02-01T19:00:00Z,29.1870,-90.6093,2.22,20.8,1111122 
LUMCON,ioos:station:LUMCON:102:1,2017-02-01T19:15:00Z,29.1870,-90.6093,2.22,20.69,1111122 
LUMCON,ioos:station:LUMCON:102:1,2017-02-01T19:30:00Z,29.1870,-90.6093,2.24,20.84,1111122 
LUMCON,ioos:station:LUMCON:102:1,2017-02-01T19:45:00Z,29.1870,-90.6093,2.24,20.81,1111122 
LUMCON,ioos:station:LUMCON:102:1,2017-02-01T20:00:00Z,29.1870,-90.6093,2.25,20.84,1111122 
LUMCON,ioos:station:LUMCON:102:1,2017-02-01T20:15:00Z,29.1870,-90.6093,2.26,20.93,1111122 
LUMCON,ioos:station:LUMCON:102:1,2017-02-01T20:30:00Z,29.1870,-90.6093,2.27,20.98,1111122 
LUMCON,ioos:station:LUMCON:102:1,2017-02-01T20:45:00Z,29.1870,-90.6093,2.27,21.1,1111122 
LUMCON,ioos:station:LUMCON:102:1,2017-02-01T21:00:00Z,29.1870,-90.6093,2.27,21.09,1111122 
LUMCON,ioos:station:LUMCON:102:1,2017-02-01T21:15:00Z,29.1870,-90.6093,2.29,21.07,1111122 
LUMCON,ioos:station:LUMCON:102:1,2017-02-01T21:30:00Z,29.1870,-90.6093,2.28,21.08,1111122 
LUMCON,ioos:station:LUMCON:102:1,2017-02-01T21:45:00Z,29.1870,-90.6093,2.3,21.16,1111122 
LUMCON,ioos:station:LUMCON:102:1,2017-02-01T22:00:00Z,29.1870,-90.6093,2.29,21.2,1111122 
LUMCON,ioos:station:LUMCON:102:1,2017-02-01T22:15:00Z,29.1870,-90.6093,2.3,21.18,1111122 
LUMCON,ioos:station:LUMCON:102:1,2017-02-01T22:30:00Z,29.1870,-90.6093,2.3,21.22,1111122 
LUMCON,ioos:station:LUMCON:102:1,2017-02-01T22:45:00Z,29.1870,-90.6093,2.31,21.24,1111122 
LUMCON,ioos:station:LUMCON:102:1,2017-02-01T23:00:00Z,29.1870,-90.6093,2.3,21.24,1111122 
LUMCON,ioos:station:LUMCON:102:1,2017-02-01T23:15:00Z,29.1870,-90.6093,2.31,21.18,1111122 
LUMCON,ioos:station:LUMCON:102:1,2017-02-01T23:30:00Z,29.1870,-90.6093,2.3,21.29,1111122 
LUMCON,ioos:station:LUMCON:102:1,2017-02-01T23:45:00Z,29.1870,-90.6093,2.3,21.29,1111122 
LUMCON,ioos:station:LUMCON:102:1,2017-02-02T00:00:00Z,29.1870,-90.6093,2.31,21.29,1111122 
LUMCON,ioos:station:LUMCON:102:1,2017-02-02T00:15:00Z,29.1870,-90.6093,2.31,21.35,1111122 
LUMCON,ioos:station:LUMCON:102:1,2017-02-02T00:30:00Z,29.1870,-90.6093,2.3,21.34,1111122 
LUMCON,ioos:station:LUMCON:102:1,2017-02-02T00:45:00Z,29.1870,-90.6093,2.3,21.33,1111122 
LUMCON,ioos:station:LUMCON:102:1,2017-02-02T01:00:00Z,29.1870,-90.6093,2.3,21.34,1111122 
LUMCON,ioos:station:LUMCON:102:1,2017-02-02T01:15:00Z,29.1870,-90.6093,2.3,21.42,1111122 
LUMCON,ioos:station:LUMCON:102:1,2017-02-02T01:30:00Z,29.1870,-90.6093,2.29,21.39,1111122 
LUMCON,ioos:station:LUMCON:102:1,2017-02-02T01:45:00Z,29.1870,-90.6093,2.28,21.35,1111122 
LUMCON,ioos:station:LUMCON:102:1,2017-02-02T02:00:00Z,29.1870,-90.6093,2.28,21.38,1111122 
LUMCON,ioos:station:LUMCON:102:1,2017-02-02T02:15:00Z,29.1870,-90.6093,2.27,21.39,1111122 
LUMCON,ioos:station:LUMCON:102:1,2017-02-02T02:30:00Z,29.1870,-90.6093,2.27,21.36,1111122 
LUMCON,ioos:station:LUMCON:102:1,2017-02-02T02:45:00Z,29.1870,-90.6093,2.27,21.43,1111122 
LUMCON,ioos:station:LUMCON:102:1,2017-02-02T03:00:00Z,29.1870,-90.6093,2.27,21.38,1111122 
LUMCON,ioos:station:LUMCON:102:1,2017-02-02T03:15:00Z,29.1870,-90.6093,2.27,21.4,1111122 
LUMCON,ioos:station:LUMCON:102:1,2017-02-02T03:30:00Z,29.1870,-90.6093,2.27,21.35,1111122 
LUMCON,ioos:station:LUMCON:102:1,2017-02-02T03:45:00Z,29.1870,-90.6093,2.27,21.36,1111122 
LUMCON,ioos:station:LUMCON:102:1,2017-02-02T04:00:00Z,29.1870,-90.6093,2.26,21.43,1111122 
LUMCON,ioos:station:LUMCON:102:1,2017-02-02T04:15:00Z,29.1870,-90.6093,2.25,21.43,1111122 
LUMCON,ioos:station:LUMCON:102:1,2017-02-02T04:30:00Z,29.1870,-90.6093,2.25,21.37,1111122 
LUMCON,ioos:station:LUMCON:102:1,2017-02-02T04:45:00Z,29.1870,-90.6093,2.26,21.37,1111122 
LUMCON,ioos:station:LUMCON:102:1,2017-02-02T05:00:00Z,29.1870,-90.6093,2.25,21.36,1111122 
LUMCON,ioos:station:LUMCON:102:1,2017-02-02T05:15:00Z,29.1870,-90.6093,2.24,21.36,1111122 
LUMCON,ioos:station:LUMCON:102:1,2017-02-02T05:30:00Z,29.1870,-90.6093,2.25,21.36,1111122 
LUMCON,ioos:station:LUMCON:102:1,2017-02-02T05:45:00Z,29.1870,-90.6093,2.24,21.36,1111122 
LUMCON,ioos:station:LUMCON:102:1,2017-02-02T06:00:00Z,29.1870,-90.6093,2.25,21.44,1111122 
LUMCON,ioos:station:LUMCON:102:1,2017-02-02T06:15:00Z,29.1870,-90.6093,2.25,21.38,1111122 
LUMCON,ioos:station:LUMCON:102:1,2017-02-02T06:30:00Z,29.1870,-90.6093,2.24,21.41,1111122 
LUMCON,ioos:station:LUMCON:102:1,2017-02-02T06:45:00Z,29.1870,-90.6093,2.24,21.4,1111122 
LUMCON,ioos:station:LUMCON:102:1,2017-02-02T07:00:00Z,29.1870,-90.6093,2.25,21.39,1111122 
LUMCON,ioos:station:LUMCON:102:1,2017-02-02T07:15:00Z,29.1870,-90.6093,2.25,21.37,1111122 
LUMCON,ioos:station:LUMCON:102:1,2017-02-02T07:30:00Z,29.1870,-90.6093,2.26,21.37,1111122 
LUMCON,ioos:station:LUMCON:102:1,2017-02-02T07:45:00Z,29.1870,-90.6093,2.27,21.39,1111122 
LUMCON,ioos:station:LUMCON:102:1,2017-02-02T08:00:00Z,29.1870,-90.6093,2.27,21.31,1111122 
LUMCON,ioos:station:LUMCON:102:1,2017-02-02T08:15:00Z,29.1870,-90.6093,2.28,21.31,1111122 
LUMCON,ioos:station:LUMCON:102:1,2017-02-02T08:30:00Z,29.1870,-90.6093,2.27,21.3,1111122 
LUMCON,ioos:station:LUMCON:102:1,2017-02-02T08:45:00Z,29.1870,-90.6093,2.29,21.3,1111122 
LUMCON,ioos:station:LUMCON:102:1,2017-02-02T09:00:00Z,29.1870,-90.6093,2.28,21.34,1111122 
LUMCON,ioos:station:LUMCON:102:1,2017-02-02T09:15:00Z,29.1870,-90.6093,2.28,21.32,1111122 
LUMCON,ioos:station:LUMCON:102:1,2017-02-02T09:30:00Z,29.1870,-90.6093,2.28,21.24,1111122 
LUMCON,ioos:station:LUMCON:102:1,2017-02-02T09:45:00Z,29.1870,-90.6093,2.28,21.14,1111122 
LUMCON,ioos:station:LUMCON:102:1,2017-02-02T10:00:00Z,29.1870,-90.6093,2.27,21.34,1111122 
LUMCON,ioos:station:LUMCON:102:1,2017-02-02T10:15:00Z,29.1870,-90.6093,2.26,21.36,1111122 
LUMCON,ioos:station:LUMCON:102:1,2017-02-02T10:30:00Z,29.1870,-90.6093,2.26,21.4,1111122 
LUMCON,ioos:station:LUMCON:102:1,2017-02-02T10:45:00Z,29.1870,-90.6093,2.27,21.38,1111122 
LUMCON,ioos:station:LUMCON:102:1,2017-02-02T11:00:00Z,29.1870,-90.6093,2.27,21.37,1111122 
LUMCON,ioos:station:LUMCON:102:1,2017-02-02T11:15:00Z,29.1870,-90.6093,2.28,21.34,1111122 
LUMCON,ioos:station:LUMCON:102:1,2017-02-02T11:30:00Z,29.1870,-90.6093,2.27,21.32,1111122 
LUMCON,ioos:station:LUMCON:102:1,2017-02-02T11:45:00Z,29.1870,-90.6093,2.27,21.37,1111122 
LUMCON,ioos:station:LUMCON:102:1,2017-02-02T12:00:00Z,29.1870,-90.6093,2.27,21.38,1111122 
LUMCON,ioos:station:LUMCON:102:1,2017-02-02T12:15:00Z,29.1870,-90.6093,2.26,21.37,1111122 
LUMCON,ioos:station:LUMCON:102:1,2017-02-02T12:30:00Z,29.1870,-90.6093,2.25,21.26,1111122 
LUMCON,ioos:station:LUMCON:102:1,2017-02-02T12:45:00Z,29.1870,-90.6093,2.25,21.25,1111122 
LUMCON,ioos:station:LUMCON:102:1,2017-02-02T13:00:00Z,29.1870,-90.6093,2.25,21.21,1111122 
LUMCON,ioos:station:LUMCON:102:1,2017-02-02T13:15:00Z,29.1870,-90.6093,2.24,21.25,1111122 
LUMCON,ioos:station:LUMCON:102:1,2017-02-02T13:30:00Z,29.1870,-90.6093,2.24,21.12,1111122 
LUMCON,ioos:station:LUMCON:102:1,2017-02-02T13:45:00Z,29.1870,-90.6093,2.24,21.22,1111122 
LUMCON,ioos:station:LUMCON:102:1,2017-02-02T14:00:00Z,29.1870,-90.6093,2.23,21.19,1111122 
LUMCON,ioos:station:LUMCON:102:1,2017-02-02T14:15:00Z,29.1870,-90.6093,2.22,21.2,1111122 
LUMCON,ioos:station:LUMCON:102:1,2017-02-02T14:30:00Z,29.1870,-90.6093,2.22,21.11,1111122 
LUMCON,ioos:station:LUMCON:102:1,2017-02-02T14:45:00Z,29.1870,-90.6093,2.22,20.9,1111122 
LUMCON,ioos:station:LUMCON:102:1,2017-02-02T15:00:00Z,29.1870,-90.6093,2.21,20.9,1111122 
LUMCON,ioos:station:LUMCON:102:1,2017-02-02T15:15:00Z,29.1870,-90.6093,2.21,20.88,1111122 
LUMCON,ioos:station:LUMCON:102:1,2017-02-02T15:30:00Z,29.1870,-90.6093,2.21,20.84,1111122 
LUMCON,ioos:station:LUMCON:102:1,2017-02-02T15:45:00Z,29.1870,-90.6093,2.21,20.95,1111122 
LUMCON,ioos:station:LUMCON:102:1,2017-02-02T16:00:00Z,29.1870,-90.6093,2.22,20.87,1111122 
LUMCON,ioos:station:LUMCON:102:1,2017-02-02T16:15:00Z,29.1870,-90.6093,2.22,21.02,1111122 
LUMCON,ioos:station:LUMCON:102:1,2017-02-02T16:30:00Z,29.1870,-90.6093,2.22,21.11,1111122 
LUMCON,ioos:station:LUMCON:102:1,2017-02-02T16:45:00Z,29.1870,-90.6093,2.23,21.05,1111122 
LUMCON,ioos:station:LUMCON:102:1,2017-02-02T17:00:00Z,29.1870,-90.6093,2.22,20.98,1111122 
LUMCON,ioos:station:LUMCON:102:1,2017-02-02T17:15:00Z,29.1870,-90.6093,2.23,20.96,1111122 
LUMCON,ioos:station:LUMCON:102:1,2017-02-02T17:30:00Z,29.1870,-90.6093,2.23,21.13,1111122 
LUMCON,ioos:station:LUMCON:102:1,2017-02-02T17:45:00Z,29.1870,-90.6093,2.24,21.13,1111122 
LUMCON,ioos:station:LUMCON:102:1,2017-02-02T18:00:00Z,29.1870,-90.6093,2.24,20.92,1111122 
LUMCON,ioos:station:LUMCON:102:1,2017-02-02T18:15:00Z,29.1870,-90.6093,2.25,20.8,1111122 
LUMCON,ioos:station:LUMCON:102:1,2017-02-02T18:30:00Z,29.1870,-90.6093,2.25,20.73,1111122 
LUMCON,ioos:station:LUMCON:102:1,2017-02-02T18:45:00Z,29.1870,-90.6093,2.26,20.64,1111122 
LUMCON,ioos:station:LUMCON:102:1,2017-02-02T19:00:00Z,29.1870,-90.6093,2.26,21.15,1111122 
LUMCON,ioos:station:LUMCON:102:1,2017-02-02T19:15:00Z,29.1870,-90.6093,2.26,20.98,1111122 
LUMCON,ioos:station:LUMCON:102:1,2017-02-02T19:30:00Z,29.1870,-90.6093,2.28,20.81,1111122 
LUMCON,ioos:station:LUMCON:102:1,2017-02-02T19:45:00Z,29.1870,-90.6093,2.27,21.16,1111122 
LUMCON,ioos:station:LUMCON:102:1,2017-02-02T20:00:00Z,29.1870,-90.6093,2.28,20.78,1111122 
LUMCON,ioos:station:LUMCON:102:1,2017-02-02T20:15:00Z,29.1870,-90.6093,2.28,21.15,1111122 
LUMCON,ioos:station:LUMCON:102:1,2017-02-02T20:30:00Z,29.1870,-90.6093,2.3,21.12,1111122 
LUMCON,ioos:station:LUMCON:102:1,2017-02-02T20:45:00Z,29.1870,-90.6093,2.29,21.24,1111122 
LUMCON,ioos:station:LUMCON:102:1,2017-02-02T21:00:00Z,29.1870,-90.6093,2.31,21.22,1111122 
LUMCON,ioos:station:LUMCON:102:1,2017-02-02T21:15:00Z,29.1870,-90.6093,2.31,21.4,1111122 
LUMCON,ioos:station:LUMCON:102:1,2017-02-02T21:30:00Z,29.1870,-90.6093,2.32,21.32,1111122 
LUMCON,ioos:station:LUMCON:102:1,2017-02-02T21:45:00Z,29.1870,-90.6093,2.31,21.38,1111122 
LUMCON,ioos:station:LUMCON:102:1,2017-02-02T22:00:00Z,29.1870,-90.6093,2.33,21.37,1111122 
LUMCON,ioos:station:LUMCON:102:1,2017-02-02T22:15:00Z,29.1870,-90.6093,2.32,21.4,1111122 
LUMCON,ioos:station:LUMCON:102:1,2017-02-02T22:30:00Z,29.1870,-90.6093,2.32,21.35,1111122 
LUMCON,ioos:station:LUMCON:102:1,2017-02-02T22:45:00Z,29.1870,-90.6093,2.32,21.35,1111122 
LUMCON,ioos:station:LUMCON:102:1,2017-02-02T23:00:00Z,29.1870,-90.6093,2.32,21.35,1111122 
LUMCON,ioos:station:LUMCON:102:1,2017-02-02T23:15:00Z,29.1870,-90.6093,2.31,21.34,1111122 
LUMCON,ioos:station:LUMCON:102:1,2017-02-02T23:30:00Z,29.1870,-90.6093,2.32,21.27,1111122 
LUMCON,ioos:station:LUMCON:102:1,2017-02-02T23:45:00Z,29.1870,-90.6093,2.3,21.31,1111122 
LUMCON,ioos:station:LUMCON:102:1,2017-02-03T00:00:00Z,29.1870,-90.6093,2.3,21.0,1111122 
LUMCON,ioos:station:LUMCON:102:1,2017-02-03T00:15:00Z,29.1870,-90.6093,2.29,21.27,1111122 
LUMCON,ioos:station:LUMCON:102:1,2017-02-03T00:30:00Z,29.1870,-90.6093,2.29,20.95,1111122 
LUMCON,ioos:station:LUMCON:102:1,2017-02-03T00:45:00Z,29.1870,-90.6093,2.28,20.78,1111122 
LUMCON,ioos:station:LUMCON:102:1,2017-02-03T01:00:00Z,29.1870,-90.6093,2.26,20.62,1111122 
LUMCON,ioos:station:LUMCON:102:1,2017-02-03T01:15:00Z,29.1870,-90.6093,2.25,20.59,1111122 
LUMCON,ioos:station:LUMCON:102:1,2017-02-03T01:30:00Z,29.1870,-90.6093,2.25,20.4,1111122 
LUMCON,ioos:station:LUMCON:102:1,2017-02-03T01:45:00Z,29.1870,-90.6093,2.24,20.28,1111122 
LUMCON,ioos:station:LUMCON:102:1,2017-02-03T02:00:00Z,29.1870,-90.6093,2.24,20.15,1111122 
LUMCON,ioos:station:LUMCON:102:1,2017-02-03T02:15:00Z,29.1870,-90.6093,2.23,20.14,1111122 
LUMCON,ioos:station:LUMCON:102:1,2017-02-03T02:30:00Z,29.1870,-90.6093,2.23,20.1,1111122 
LUMCON,ioos:station:LUMCON:102:1,2017-02-03T02:45:00Z,29.1870,-90.6093,2.21,20.01,1111122 
LUMCON,ioos:station:LUMCON:102:1,2017-02-03T03:00:00Z,29.1870,-90.6093,2.2,19.83,1111122 
LUMCON,ioos:station:LUMCON:102:1,2017-02-03T03:15:00Z,29.1870,-90.6093,2.19,19.67,1111122 
LUMCON,ioos:station:LUMCON:102:1,2017-02-03T03:30:00Z,29.1870,-90.6093,2.19,19.57,1111122 
LUMCON,ioos:station:LUMCON:102:1,2017-02-03T03:45:00Z,29.1870,-90.6093,2.19,19.42,1111122 
LUMCON,ioos:station:LUMCON:102:1,2017-02-03T04:00:00Z,29.1870,-90.6093,2.18,19.26,1111122 
LUMCON,ioos:station:LUMCON:102:1,2017-02-03T04:15:00Z,29.1870,-90.6093,2.17,19.26,1111122 
LUMCON,ioos:station:LUMCON:102:1,2017-02-03T04:30:00Z,29.1870,-90.6093,2.16,19.15,1111122 
LUMCON,ioos:station:LUMCON:102:1,2017-02-03T04:45:00Z,29.1870,-90.6093,2.16,19.1,1111122 
LUMCON,ioos:station:LUMCON:102:1,2017-02-03T05:00:00Z,29.1870,-90.6093,2.15,19.07,1111122 
LUMCON,ioos:station:LUMCON:102:1,2017-02-03T05:15:00Z,29.1870,-90.6093,2.14,18.99,1111122 
LUMCON,ioos:station:LUMCON:102:1,2017-02-03T05:30:00Z,29.1870,-90.6093,2.13,18.83,1111122 
LUMCON,ioos:station:LUMCON:102:1,2017-02-03T05:45:00Z,29.1870,-90.6093,2.14,18.82,1111122 
LUMCON,ioos:station:LUMCON:102:1,2017-02-03T06:00:00Z,29.1870,-90.6093,2.13,18.75,1111122 
LUMCON,ioos:station:LUMCON:102:1,2017-02-03T06:15:00Z,29.1870,-90.6093,2.13,18.65,1111122 
LUMCON,ioos:station:LUMCON:102:1,2017-02-03T06:30:00Z,29.1870,-90.6093,2.12,18.56,1111122 
LUMCON,ioos:station:LUMCON:102:1,2017-02-03T06:45:00Z,29.1870,-90.6093,2.11,18.61,1111122 
LUMCON,ioos:station:LUMCON:102:1,2017-02-03T07:00:00Z,29.1870,-90.6093,2.11,18.48,1111122 
LUMCON,ioos:station:LUMCON:102:1,2017-02-03T07:15:00Z,29.1870,-90.6093,2.12,18.44,1111122 
LUMCON,ioos:station:LUMCON:102:1,2017-02-03T07:30:00Z,29.1870,-90.6093,2.13,18.32,1111122 
LUMCON,ioos:station:LUMCON:102:1,2017-02-03T07:45:00Z,29.1870,-90.6093,2.13,18.41,1111122 
LUMCON,ioos:station:LUMCON:102:1,2017-02-03T08:00:00Z,29.1870,-90.6093,2.14,18.46,1111122 
LUMCON,ioos:station:LUMCON:102:1,2017-02-03T08:15:00Z,29.1870,-90.6093,2.15,18.56,1111122 
LUMCON,ioos:station:LUMCON:102:1,2017-02-03T08:30:00Z,29.1870,-90.6093,2.15,18.68,1111122 
LUMCON,ioos:station:LUMCON:102:1,2017-02-03T08:45:00Z,29.1870,-90.6093,2.16,18.6,1111122 
LUMCON,ioos:station:LUMCON:102:1,2017-02-03T09:00:00Z,29.1870,-90.6093,2.16,18.71,1111122 
LUMCON,ioos:station:LUMCON:102:1,2017-02-03T09:15:00Z,29.1870,-90.6093,2.18,19.04,1111122 
LUMCON,ioos:station:LUMCON:102:1,2017-02-03T09:30:00Z,29.1870,-90.6093,2.17,18.83,1111122 
LUMCON,ioos:station:LUMCON:102:1,2017-02-03T09:45:00Z,29.1870,-90.6093,2.19,19.14,1111122 
LUMCON,ioos:station:LUMCON:102:1,2017-02-03T10:00:00Z,29.1870,-90.6093,2.18,19.23,1111122 
LUMCON,ioos:station:LUMCON:102:1,2017-02-03T10:15:00Z,29.1870,-90.6093,2.18,18.92,1111122 
LUMCON,ioos:station:LUMCON:102:1,2017-02-03T10:30:00Z,29.1870,-90.6093,2.18,18.91,1111122 
LUMCON,ioos:station:LUMCON:102:1,2017-02-03T10:45:00Z,29.1870,-90.6093,2.19,18.88,1111122 
LUMCON,ioos:station:LUMCON:102:1,2017-02-03T11:00:00Z,29.1870,-90.6093,2.2,18.76,1111122 
LUMCON,ioos:station:LUMCON:102:1,2017-02-03T11:15:00Z,29.1870,-90.6093,2.21,18.68,1111122 
LUMCON,ioos:station:LUMCON:102:1,2017-02-03T11:30:00Z,29.1870,-90.6093,2.22,18.68,1111122 
LUMCON,ioos:station:LUMCON:102:1,2017-02-03T11:45:00Z,29.1870,-90.6093,2.22,18.61,1111122 
LUMCON,ioos:station:LUMCON:102:1,2017-02-03T12:00:00Z,29.1870,-90.6093,2.23,18.7,1111122 
LUMCON,ioos:station:LUMCON:102:1,2017-02-03T12:15:00Z,29.1870,-90.6093,2.24,18.64,1111122 
LUMCON,ioos:station:LUMCON:102:1,2017-02-03T12:30:00Z,29.1870,-90.6093,2.25,18.65,1111122 
LUMCON,ioos:station:LUMCON:102:1,2017-02-03T12:45:00Z,29.1870,-90.6093,2.24,18.66,1111122 
LUMCON,ioos:station:LUMCON:102:1,2017-02-03T13:00:00Z,29.1870,-90.6093,2.24,18.67,1111122 
LUMCON,ioos:station:LUMCON:102:1,2017-02-03T13:15:00Z,29.1870,-90.6093,2.24,18.68,1111122 
LUMCON,ioos:station:LUMCON:102:1,2017-02-03T13:30:00Z,29.1870,-90.6093,2.25,18.73,1111122 
LUMCON,ioos:station:LUMCON:102:1,2017-02-03T13:45:00Z,29.1870,-90.6093,2.25,18.78,1111122 
LUMCON,ioos:station:LUMCON:102:1,2017-02-03T14:00:00Z,29.1870,-90.6093,2.24,18.81,1111122 
LUMCON,ioos:station:LUMCON:102:1,2017-02-03T14:15:00Z,29.1870,-90.6093,2.25,18.99,1111122 
LUMCON,ioos:station:LUMCON:102:1,2017-02-03T14:30:00Z,29.1870,-90.6093,2.24,19.03,1111122 
LUMCON,ioos:station:LUMCON:102:1,2017-02-03T15:15:00Z,29.1870,-90.6093,2.25,18.81,1111122 
LUMCON,ioos:station:LUMCON:102:1,2017-02-03T15:30:00Z,29.1870,-90.6093,2.26,17.78,1111122 
LUMCON,ioos:station:LUMCON:102:1,2017-02-03T15:45:00Z,29.1870,-90.6093,2.24,17.87,1111122 
LUMCON,ioos:station:LUMCON:102:1,2017-02-03T16:00:00Z,29.1870,-90.6093,2.23,18.16,1111122 
LUMCON,ioos:station:LUMCON:102:1,2017-02-03T16:15:00Z,29.1870,-90.6093,2.23,18.25,1111122 
LUMCON,ioos:station:LUMCON:102:1,2017-02-03T16:30:00Z,29.1870,-90.6093,2.21,18.68,1111122 
LUMCON,ioos:station:LUMCON:102:1,2017-02-03T16:45:00Z,29.1870,-90.6093,2.21,18.39,1111122 
LUMCON,ioos:station:LUMCON:102:1,2017-02-03T17:00:00Z,29.1870,-90.6093,2.2,18.82,1111122 
LUMCON,ioos:station:LUMCON:102:1,2017-02-03T17:15:00Z,29.1870,-90.6093,2.19,18.83,1111122 
LUMCON,ioos:station:LUMCON:102:1,2017-02-03T17:30:00Z,29.1870,-90.6093,2.18,18.13,1111122 
LUMCON,ioos:station:LUMCON:102:1,2017-02-03T17:45:00Z,29.1870,-90.6093,2.18,18.16,1111122 
LUMCON,ioos:station:LUMCON:102:1,2017-02-03T18:00:00Z,29.1870,-90.6093,2.18,18.18,1111122 